ラーソン彗星

C/2009 F1 ( Larson )

English version
Home page
Updated on March 17, 2010

---------------------------------------------------------------------

・ プロフィール

発見日 2009年3月16日
発見光度 19.0等
発見者 S. M. Larson (Mt. Lemmon)

・ 写真集

・ 軌道要素

The following orbital elements are taken from MPC 66204:

Epoch 2009 June 18.0 TT = JDT 2455000.5
T 2009 June 25.8905 TT                                  MPC
q   1.830634             (2000.0)            P               Q
z  +0.009468       Peri.  219.5848      -0.7476526      +0.6640683
 +/-0.000154       Node   357.9500      +0.6409600      +0.7237018
e   0.982668       Incl.  171.3756      +0.1737408      +0.1878002
From 145 observations 2009 Mar. 16-May 23, mean residual 0".5.

・ 光度変化

        m1 = 15.0 + 5 logΔ + 10.0 log r

---------------------------------------------------------------------

軌道要素はMPCのEphemerides and Orbital Elementsに掲載されたものです。
光度グラフはComet for Windowsで作成したものです。

---------------------------------------------------------------------

Copyright(C) Seiichi Yoshida (comet@aerith.net). All rights reserved.